Location: Berlin
(42.3812°N, 71.6370°W)
Time: 22:16:36
(UTC+00:00)

Cosmos 1656 Rocket - Pass Details

Date: 15 November 2025
Orbit: 791 x 846 km, 71.1° (Epoch: 09 December)

Event Time Altitude Azimuth Distance (km) Brightness Sun altitude
Exits shadow 09:24:14 19° 347° (NNW) 1,933 5.4 -24.6°
Maximum altitude 09:28:21 60° 62° (ENE) 966 4.2 -23.9°
Drops below altitude 10° 09:33:56 10° 143° (SE) 2,454 6.6 -22.8°
Sets 09:36:24 0° 147° (SSE) 3,380 7.4 -22.4°
